RH
20 18 18 18 20 24 22 20 20 19 17 16 13 12 12 11 11 10 9 8 8 8 9 9 11 12 11 10 15 16 17 17 15 26 27 26 29 33 35 34 38 41 40 37
31 23 26 27 26 24 19 21 30 33 29 25 22 24 23 12 9 7 6 7 8 10 10 9 9 10 11 13 17 18 20 18 19 24 25 35 39 39 40 42 43 44 42 38
43 30 28 28 37 41 38 28 26 28 26 22 18 17 17 14 8 7 7 6 7 8 7 7 8 10 12 13 16 21 23 18 16 21 24 34 36 38 41 43 44 44 41 34
38 39 30 20 20 20 24 28 21 15 15 16 18 15 10 7 6 7 5 6 6 6 6 6 7 10 12 13 16 24 24 19 14 15 19 32 38 43 45 44 45 45 40 31
46 33 26 20 18 17 17 16 16 16 14 13 12 13 9 8 6 6 6 7 8 7 5 5 6 10 12 16 22 27 27 24 15 16 25 33 41 46 47 47 47 43 39 28
52 30 29 27 21 17 17 17 15 13 12 34 14 14 9 7 6 6 6 8 7 6 7 6 6 10 14 21 26 28 28 24 16 18 27 40 41 43 47 45 38 36 41 29
32 23 19 18 17 16 15 15 14 31 43 42 31 35 9 6 6 7 7 7 7 14 14 9 8 10 13 21 25 25 26 22 20 26 41 43 47 46 39 34 32 33 35 32
17 20 17 18 16 15 14 14 15 25 48 65 30 21 5 5 7 13 14 12 17 17 13 11 13 16 18 22 22 25 26 24 28 43 44 37 34 33 33 32 33 33 33 31
15 16 16 18 15 13 14 14 14 14 20 42 11 8 6 9 14 17 13 17 20 19 23 22 25 29 31 32 32 31 28 30 42 45 35 32 31 33 35 36 36 35 33 32
16 16 14 14 12 10 11 12 14 12 19 40 31 25 14 14 15 15 13 9 12 17 16 17 19 22 22 23 28 35 39 43 46 40 34 34 34 34 37 39 38 36 35 34
14 13 14 12 10 9 13 14 12 19 22 69 68 30 16 13 12 12 14 10 14 17 23 26 29 27 27 28 28 39 44 47 49 39 38 38 36 35 37 40 40 37 36 36
7 7 7 10 11 13 14 15 14 14 29 40 58 28 15 9 8 12 16 17 21 21 25 24 32 34 34 35 36 38 43 44 46 40 44 43 35 26 35 40 41 39 36 34
21 17 21 35 31 31 34 30 30 23 23 38 48 26 9 11 14 16 17 20 19 21 29 42 40 40 40 40 43 43 42 50 45 46 48 47 32 26 32 38 41 40 37 34
23 24 24 21 24 34 31 28 32 39 38 32 28 13 8 11 15 24 27 23 26 23 27 27 24 28 32 36 43 45 47 53 48 50 53 52 41 37 32 30 30 35 39 38
28 26 24 21 25 31 30 28 30 41 35 39 15 21 9 16 33 36 34 29 26 23 23 24 27 29 34 40 40 44 50 55 53 55 58 59 54 50 44 41 43 36 34 39
28 32 30 25 23 28 31 20 16 18 22 32 24 29 22 42 45 42 34 35 41 29 26 28 26 25 29 39 44 43 50 57 58 59 63 66 65 60 49 47 47 48 41 43
37 40 43 45 34 45 57 25 23 25 25 27 35 37 50 52 50 43 44 41 38 40 47 45 42 39 38 44 48 50 59 63 63 66 69 71 75 69 60 63 58 54 54 55
35 47 56 59 56 71 34 32 33 34 43 43 51 65 62 51 50 48 46 44 45 50 48 44 43 44 45 42 43 49 56 62 66 70 74 84 88 81 75 74 62 60 65 64
35 51 68 64 70 46 35 33 32 32 49 57 56 61 60 58 54 52 50 47 48 48 48 48 48 47 49 54 51 46 51 65 74 80 89 94 93 88 88 75 64 72 69 67
43 66 78 80 80 85 44 44 50 50 58 64 60 59 58 59 59 57 54 57 58 62 60 55 51 50 49 52 53 64 82 87 92 96 94 93 96 96 95 85 82 80 73 71
47 76 83 89 88 70 57 53 53 57 61 67 66 73 74 78 85 80 76 72 69 66 63 60 56 51 47 44 54 76 98 100 100 99 100 98 97 97 95 95 98 89 78 76
52 55 66 91 96 89 74 64 66 65 77 79 77 80 85 88 87 80 73 74 76 73 71 70 65 56 43 41 40 66 97 94 93 96 97 97 98 100 93 92 93 96 98 94
70 64 64 75 86 90 86 78 76 88 96 96 95 93 87 77 76 75 79 82 71 57 50 37 47 56 72 100 98 98 92 84 89 86 96 100 97 96 96 98 98 97 97 97
89 96 97 96 98 95 92 98 97 95 95 91 80 86 96 92 77 70 53 48 44 40 40 43 48 60 71 73 80 90 93 97 99 97 97 97 96 96 98 95 96 96 95 96
89 89 90 93 94 95 94 91 93 95 95 99 99 87 75 54 48 46 43 40 38 38 43 46 48 52 58 64 77 88 94 96 96 97 96 97 97 98 98 97 96 95 95 94
86 76 96 98 99 91 93 99 97 89 85 77 62 54 46 42 41 42 42 42 40 43 48 47 44 42 45 48 53 57 57 66 69 72 86 94 96 95 95 93 91 87 72 56
Wind_Speed
23 24 20 14 12 13 12 11 9 8 10 13 17 19 16 17 24 25 26 29 32 32 31 29 27 25 24 24 23 21 19 18 16 15 16 19 21 22 23 21 20 21 22 23
19 20 20 16 12 10 8 8 7 9 13 16 20 24 22 23 25 26 26 27 28 27 27 24 22 21 22 19 18 18 17 16 15 16 15 16 18 21 22 22 23 23 23 24
16 15 16 16 14 11 11 9 10 13 16 20 23 29 24 21 22 27 27 26 23 22 21 18 17 16 17 16 14 15 15 16 17 17 18 20 22 23 24 24 24 24 25 25
13 14 11 9 9 9 11 11 12 12 12 9 14 10 25 26 23 24 21 15 13 15 16 15 15 15 16 15 13 16 16 16 18 19 20 23 26 24 24 23 23 24 25 26
6 9 9 8 8 8 9 10 11 13 16 19 17 15 16 30 26 14 13 15 15 17 14 13 14 15 16 15 15 17 17 18 18 19 22 26 27 25 24 24 25 26 26 25
10 5 7 7 7 8 9 10 12 15 15 5 12 9 11 11 11 14 14 14 15 14 15 14 13 14 13 14 15 17 17 19 19 21 25 28 25 24 24 25 25 25 25 23
11 10 8 7 6 8 9 8 4 5 3 5 5 5 16 14 14 12 11 12 12 13 13 14 12 11 12 14 16 17 19 20 20 23 26 24 22 22 23 24 25 25 24 23
10 5 9 8 9 9 8 7 4 6 2 4 5 8 6 17 12 13 12 10 11 10 11 9 10 12 14 16 17 18 20 20 22 23 22 22 23 25 27 26 24 22 21 21
4 3 4 7 8 8 6 10 11 4 6 3 8 13 20 17 9 7 11 11 9 8 10 11 12 12 14 17 20 22 22 22 22 22 21 22 24 24 24 23 22 20 20 19
4 4 9 13 14 14 14 8 5 7 1 4 6 9 17 9 4 10 9 12 13 13 16 17 15 15 16 18 21 22 21 22 22 20 20 21 22 23 23 22 21 20 20 19
9 10 7 7 7 10 13 16 12 7 6 4 1 7 7 10 20 13 8 15 16 18 17 20 18 16 17 20 20 21 22 23 21 20 18 19 22 23 23 22 21 21 21 22
9 7 8 12 13 14 15 17 17 9 6 9 2 19 20 17 13 11 13 18 22 26 25 26 23 25 23 22 23 22 25 26 23 21 19 21 23 25 25 24 25 25 24 23
6 8 5 4 10 17 20 21 22 22 21 17 4 14 14 20 19 24 33 37 34 30 26 24 25 27 30 31 31 30 28 26 25 22 23 23 22 23 24 25 25 26 27 28
14 16 17 14 12 12 12 11 12 20 17 23 32 43 34 40 40 36 27 18 17 17 17 21 23 25 28 31 33 33 28 27 27 26 26 26 24 26 27 29 30 30 31 31
17 25 24 26 25 27 29 28 31 35 36 38 44 43 39 40 39 23 20 19 19 21 21 22 24 23 26 29 29 29 26 28 29 30 30 29 27 28 33 35 35 34 34 33
20 24 26 30 27 27 31 32 35 39 40 46 45 47 33 25 26 25 19 18 18 20 19 20 23 26 25 21 22 24 25 28 32 33 33 32 32 32 35 38 40 39 37 36
27 26 22 22 25 19 19 32 27 34 35 34 32 25 23 26 17 18 15 15 16 14 13 14 16 16 17 19 21 22 24 30 34 35 36 36 36 36 37 42 45 42 39 38
33 29 22 16 15 5 16 14 12 13 14 18 20 20 22 19 14 12 12 12 13 18 22 25 26 27 25 23 23 23 27 32 36 40 40 39 39 38 38 45 46 41 40 39
35 32 20 9 15 21 21 20 19 17 12 11 12 14 16 18 16 17 20 24 28 33 36 37 34 33 33 31 30 32 31 35 41 43 44 43 44 44 45 47 42 40 41 40
25 32 28 13 7 6 5 11 7 10 12 14 18 22 25 27 29 31 33 36 38 43 46 46 42 36 33 34 37 34 33 38 43 47 50 51 51 47 50 48 45 43 43 41
20 24 34 31 17 16 18 21 23 17 17 21 22 22 25 30 35 40 43 45 49 50 48 44 42 38 37 38 39 39 42 47 49 52 53 54 51 52 53 48 44 42 42 42
23 17 22 23 14 14 14 14 17 19 21 22 25 30 35 39 44 47 49 47 43 41 39 40 41 42 43 44 45 46 46 48 51 54 55 60 52 53 54 50 43 40 40 40
20 22 20 16 10 19 18 20 22 24 29 34 39 43 45 45 42 43 42 43 45 45 43 43 44 46 41 39 44 45 50 52 53 56 56 56 56 44 38 38 39 38 35 37
21 21 25 25 25 33 35 30 32 43 44 44 42 40 39 39 43 43 40 37 36 36 34 35 37 38 38 38 39 41 42 46 51 54 55 50 45 46 44 38 34 34 34 33
28 28 33 37 36 39 40 42 39 34 36 33 35 39 33 27 30 29 30 31 31 31 30 31 32 34 34 35 35 35 36 37 38 40 42 42 44 43 43 42 41 36 33 31
37 36 33 35 32 35 35 30 30 30 30 27 23 23 22 22 22 22 22 25 27 27 28 28 28 29 29 30 32 32 31 34 36 36 32 32 35 35 33 33 34 28 32 32
Wind_Direction
160 163 173 173 176 175 166 178 196 225 251 266 273 276 272 273 279 284 282 281 281 282 283 288 294 295 296 294 288 284 284 286 290 295 303 309 309 307 304 301 298 299 303 306
161 166 161 171 177 184 191 193 219 263 269 278 280 281 285 284 284 281 281 279 280 280 285 292 293 296 294 292 280 275 277 281 282 287 296 303 307 305 302 301 301 302 303 304
178 161 164 169 182 196 218 236 256 266 275 279 287 290 288 293 292 294 285 279 275 282 289 294 291 291 289 280 271 273 276 281 284 287 297 307 310 306 300 298 300 302 303 303
183 189 180 174 188 212 239 251 257 267 290 276 295 283 293 305 301 298 295 282 278 286 292 290 293 291 292 288 280 271 271 276 281 288 297 306 311 306 301 298 298 300 301 302
175 187 192 193 214 228 258 272 285 296 297 300 294 283 306 298 298 291 283 288 290 298 298 297 296 289 285 278 270 271 277 282 283 288 299 310 312 308 303 302 302 303 303 304
230 218 223 234 247 258 263 279 292 291 285 290 282 287 297 283 296 302 294 285 292 301 306 304 297 284 275 263 261 266 273 277 286 293 303 309 308 306 306 308 309 307 306 306
227 230 242 248 246 254 257 268 312 327 353 229 299 285 268 291 298 292 292 299 304 303 302 296 290 275 268 264 269 276 281 285 291 297 303 306 309 309 308 309 307 304 302 302
204 211 227 239 244 245 256 245 212 212 219 281 291 242 276 294 293 300 302 299 306 303 304 300 285 278 278 275 277 280 281 283 289 298 303 309 312 311 309 309 307 305 302 300
196 243 253 250 254 243 251 232 236 243 283 291 246 265 276 282 286 297 320 314 306 305 303 300 292 291 288 288 289 287 285 286 292 297 302 310 313 312 310 308 307 306 308 308
242 271 250 248 249 243 228 213 191 205 158 282 275 268 258 291 294 298 326 334 316 300 314 309 306 302 295 293 291 288 283 285 289 291 300 310 315 316 312 308 306 306 305 302
247 248 263 260 251 250 235 231 225 223 228 171 262 255 242 302 304 300 309 319 317 307 304 301 278 281 289 296 300 292 284 281 280 283 292 305 312 313 309 304 302 304 304 302
237 254 256 255 251 242 237 236 234 227 219 220 214 271 282 286 293 287 302 301 310 304 293 294 288 277 287 290 296 300 287 282 274 276 290 303 312 315 313 309 304 305 305 300
220 224 233 250 256 251 246 248 244 240 252 255 186 258 291 294 289 294 301 300 294 290 278 278 279 279 281 285 289 293 287 273 267 270 284 295 308 316 317 315 310 306 306 306
272 258 254 257 286 284 271 271 252 236 239 244 246 272 288 291 300 308 301 296 292 300 289 288 283 277 277 281 283 286 276 265 262 268 280 289 299 308 314 315 311 309 307 304
260 268 269 272 272 275 275 274 271 263 266 257 275 277 292 303 307 303 294 287 287 280 285 288 281 279 279 275 280 282 268 259 260 268 278 287 294 305 310 314 313 307 300 298
271 267 276 277 278 276 273 270 268 268 267 267 272 277 302 296 294 298 296 288 289 285 284 284 281 280 282 276 280 278 264 260 265 271 280 284 288 295 301 307 309 305 297 292
272 267 268 275 287 283 270 274 271 269 272 277 274 297 285 286 294 299 303 293 296 303 317 326 331 315 290 291 294 291 275 268 272 276 280 282 285 290 297 304 306 300 291 287
266 263 260 271 281 257 274 259 253 265 263 264 267 267 266 268 264 282 287 284 290 311 312 312 313 314 311 304 300 296 292 286 281 279 279 278 280 286 293 300 303 293 286 283
256 253 244 245 219 270 258 254 265 260 247 230 223 239 253 261 251 263 272 280 297 306 313 315 313 312 309 299 289 284 282 280 276 275 272 274 277 282 289 300 296 287 282 280
242 241 236 226 236 238 202 191 216 238 223 254 261 266 270 279 290 292 295 302 307 313 313 311 311 313 311 307 299 293 283 277 271 268 269 270 272 281 291 294 287 285 278 275
237 230 228 233 245 263 248 254 264 250 248 257 265 276 289 300 305 307 306 305 305 307 305 302 301 297 294 296 296 290 285 277 273 272 271 274 283 291 294 286 281 274 270 269
255 249 236 229 234 262 241 247 233 240 245 256 270 281 289 295 299 301 300 298 296 295 290 291 293 296 298 296 293 288 285 284 284 285 286 288 277 280 285 282 272 265 263 263
249 247 254 238 250 250 258 242 250 260 276 287 292 296 298 298 296 296 298 297 298 304 302 300 297 292 290 285 284 282 280 282 282 282 285 282 275 269 260 257 256 255 259 262
244 247 264 268 262 269 264 263 276 293 294 296 297 296 297 297 299 300 304 305 304 303 299 296 295 294 291 286 283 286 289 290 287 286 281 273 272 271 261 256 258 257 257 264
269 271 270 273 276 275 278 286 289 288 288 288 293 298 307 309 308 309 311 312 313 312 311 309 306 303 301 298 297 296 293 288 286 283 281 279 276 269 265 264 259 260 262 270
277 280 273 272 277 276 276 267 280 289 291 298 301 304 309 312 315 318 319 317 316 315 312 310 310 310 311 310 309 311 312 309 305 300 295 291 288 284 280 284 275 284 289 289